Regional Weather Roundup
Issued by NWS

Home | Current Version | Previous Version | Graphics & Text | Print | Product List | Glossary On
Versions: 1 2 3 4 5 6 7 8 9 10 11 12 13 14 15 16 17 18 19 20 21 22 23 24 25 26 27 28 29 30 31 32 33 34 35 36 37 38 39 40 41 42 43 44 45 46 47 48 49 50
000
ASUS45 KCYS 111310
RWRWY

WYOMING REGIONAL WEATHER ROUNDUP
NATIONAL WEATHER SERVICE CHEYENNE WY
600 AM MST MON DEC 11 2017

NOTE:  "FAIR" INDICATES FEW OR NO CLOUDS BELOW 12,000 FEET
WITH NO SIGNIFICANT WEATHER AND/OR OBSTRUCTIONS TO VISIBILITY.

WYZ001-111400-
YELLOWSTONE NATIONAL PARK

CITY           SKY/WX    TMP DP  RH WIND       PRES   REMARKS
LK YELLOWSTONE   N/A      3   0  87 NW3       30.59R
W YELLOWSTONE  NOT AVBL

$$
WYZ002>013-054>058-071-098>099-111400-
NORTHERN WYOMING

CITY           SKY/WX    TMP DP  RH WIND       PRES   REMARKS
JACKSON        FAIR       8   5  87 N8        30.61R WCI  -4
CODY           FAIR      32   9  38 CALM      30.41S
GREYBULL       FAIR      11   8  88 SW5       30.43R WCI   3
WORLAND        FAIR      13  10  88 W5        30.42R WCI   5
SHERIDAN       FAIR      34  16  47 W13       30.37F WCI  25
BUFFALO        FAIR      39  10  30 N21G28    30.35S WCI  29
GILLETTE       FAIR      32  16  51 W14       30.32R WCI  22
HULETT         FAIR      37  19  48 NW14G25   30.30R WCI  29
NEWCASTLE      FAIR      37  12  35 NW22G32   30.27R WCI  27

$$
WYZ014>020-022>026-101>103-111400-
CENTRAL WYOMING

CITY           SKY/WX    TMP DP  RH WIND       PRES   REMARKS
BIG PINEY      FAIR      21   2  43 CALM      30.48S
PINEDALE       FAIR      21   5  49 NW8       30.47S WCI  12
DUBOIS         FAIR      37  14  38 W23G29    30.44S WCI  26
LANDER         FAIR      21  13  71 CALM      30.42R
RIVERTON       FAIR      15   9  76 E5        30.43R WCI   8
CASPER         FAIR      31  12  45 SW12      30.38S WCI  22
DOUGLAS        FAIR      28  16  60 N14       30.36R WCI  17

$$
WYZ021-027>030-104>119-111400-
SOUTHERN WYOMING

CITY           SKY/WX    TMP DP  RH WIND       PRES   REMARKS
EVANSTON       FAIR      27   3  35 CALM      30.53S
FORT BRIDGER   FAIR      37  -4  17 W13       30.53S WCI  28
ROCK SPRINGS   FAIR      24   4  42 W6        30.47F WCI  17
DIXON          FAIR       6   0  77 CALM      30.54S
RAWLINS        FAIR      22   6  50 W8        30.46R WCI  12
SARATOGA       FAIR      14   3  62 CALM      30.46S
LARAMIE        FAIR      22   2  42 W12       30.37S WCI  10
CHEYENNE       FAIR      40  -1  18 W16       30.30S WCI  31
TORRINGTON     FAIR      30  12  47 SW6       30.30R WCI  24
PINE BLUFFS    FAIR      32   1  27 MISG      30.32R

$$



USA.gov is the U.S. government's official web portal to all federal, state and local government web resources and services.